timestamp,wind_dir_avg,wind_spd_avg,wind_spd_max_dir,wind_spd_gust,battery_voltage,lat,long
2023-03-31 00:04:00+00:00,152.0,3.69,151.0,4.02,12.41,47.59359,-54.27349
2023-03-31 00:14:00+00:00,145.0,4.25,145.0,4.71,12.33,47.59359,-54.27349
2023-03-31 00:24:00+00:00,148.0,3.68,139.0,4.53,12.33,47.59359,-54.27349
2023-03-31 00:34:00+00:00,143.0,4.4,141.0,4.62,12.33,47.59359,-54.27349
2023-03-31 00:44:00+00:00,145.0,4.32,144.0,4.89,12.33,47.59359,-54.27349
2023-03-31 00:54:00+00:00,143.0,4.54,143.0,4.98,12.33,47.59359,-54.27349
2023-03-31 01:04:00+00:00,155.0,4.29,157.0,4.65,12.33,47.59359,-54.27349
2023-03-31 01:14:00+00:00,149.0,4.23,147.0,4.55,12.25,47.59359,-54.27349
2023-03-31 01:24:00+00:00,138.0,3.66,136.0,4.3,12.25,47.59359,-54.27349
2023-03-31 01:34:00+00:00,145.0,4.34,144.0,4.62,12.25,47.59359,-54.27349
2023-03-31 01:44:00+00:00,154.0,2.89,162.0,3.29,12.25,47.59359,-54.27349
2023-03-31 01:54:00+00:00,160.0,2.69,163.0,3.13,12.25,47.59359,-54.27349
2023-03-31 02:04:00+00:00,161.0,2.88,160.0,3.04,12.25,47.59359,-54.27349
2023-03-31 02:14:00+00:00,160.0,1.98,160.0,2.31,12.17,47.59359,-54.27349
2023-03-31 02:24:00+00:00,183.0,1.75,192.0,2.21,12.17,47.59359,-54.27349
2023-03-31 02:34:00+00:00,142.0,3.05,134.0,3.53,12.17,47.59359,-54.27349
2023-03-31 02:44:00+00:00,182.0,0.83,200.0,1.09,12.17,47.59359,-54.27349
2023-03-31 02:54:00+00:00,171.0,1.9,127.0,3.27,12.17,47.59359,-54.27349
2023-03-31 03:04:00+00:00,149.0,2.64,138.0,3.7,12.17,47.59359,-54.27349
2023-03-31 03:14:00+00:00,227.0,4.91,232.0,5.3,12.17,47.59359,-54.27349
2023-03-31 03:24:00+00:00,208.0,4.31,218.0,5.57,12.17,47.59359,-54.27349
2023-03-31 03:34:00+00:00,150.0,5.23,153.0,5.57,12.17,47.59359,-54.27349
2023-03-31 03:44:00+00:00,172.0,2.4,135.0,3.91,12.17,47.59359,-54.27349
2023-03-31 03:54:00+00:00,178.0,1.16,177.0,1.52,12.17,47.59359,-54.27349
2023-03-31 04:04:00+00:00,128.0,2.82,133.0,3.71,12.17,47.59359,-54.27349
2023-03-31 04:14:00+00:00,148.0,3.65,149.0,4.2,12.17,47.59359,-54.27349
2023-03-31 04:24:00+00:00,151.0,3.56,157.0,3.79,12.17,47.59359,-54.27349
2023-03-31 04:34:00+00:00,151.0,1.32,166.0,1.71,12.17,47.59359,-54.27349
2023-03-31 04:44:00+00:00,138.0,1.74,138.0,1.97,12.17,47.59359,-54.27349
2023-03-31 04:54:00+00:00,131.0,1.87,128.0,2.19,12.17,47.59359,-54.27349
2023-03-31 05:04:00+00:00,125.0,2.44,128.0,2.78,12.17,47.59359,-54.27349
2023-03-31 05:14:00+00:00,141.0,1.99,142.0,2.29,12.17,47.59359,-54.27349
2023-03-31 05:24:00+00:00,143.0,2.05,147.0,2.28,12.17,47.59359,-54.27349
2023-03-31 05:34:00+00:00,144.0,2.06,149.0,2.33,12.17,47.59359,-54.27349
2023-03-31 05:44:00+00:00,144.0,1.5,146.0,1.81,12.17,47.59359,-54.27349
2023-03-31 05:54:00+00:00,141.0,1.36,142.0,1.61,12.17,47.59359,-54.27349
2023-03-31 06:04:00+00:00,125.0,1.16,132.0,1.47,12.17,47.59359,-54.27349
2023-03-31 06:14:01+00:00,181.0,1.24,166.0,1.44,12.09,47.59359,-54.27349
2023-03-31 06:24:01+00:00,156.0,1.38,159.0,1.57,12.09,47.59359,-54.27349
2023-03-31 06:34:01+00:00,146.0,1.24,152.0,1.48,12.09,47.59359,-54.27349
2023-03-31 06:44:01+00:00,131.0,1.13,132.0,1.43,12.09,47.59359,-54.27349
2023-03-31 06:54:01+00:00,72.0,1.58,73.0,1.9,12.09,47.59359,-54.27349
2023-03-31 07:04:01+00:00,87.0,2.0,86.0,2.35,12.09,47.59359,-54.27349
2023-03-31 07:14:00+00:00,84.0,1.93,80.0,2.38,12.09,47.59359,-54.27349
2023-03-31 07:24:00+00:00,87.0,2.1,85.0,2.54,12.09,47.59359,-54.27349
2023-03-31 07:34:00+00:00,81.0,2.6,84.0,3.15,12.09,47.59359,-54.27349
2023-03-31 07:44:00+00:00,76.0,2.57,95.0,3.2,12.09,47.59359,-54.27349
2023-03-31 07:54:00+00:00,77.0,2.24,71.0,2.85,12.09,47.59359,-54.27349
2023-03-31 08:04:00+00:00,78.0,2.0,89.0,2.64,12.09,47.59359,-54.27349
2023-03-31 08:14:00+00:00,68.0,2.14,60.0,2.55,12.09,47.59359,-54.27349
2023-03-31 08:24:00+00:00,68.0,2.87,70.0,3.28,12.09,47.59359,-54.27349
2023-03-31 08:34:00+00:00,57.0,3.29,53.0,3.67,12.09,47.59359,-54.27349
2023-03-31 08:44:00+00:00,65.0,3.29,64.0,3.96,12.09,47.59359,-54.27349
2023-03-31 08:54:00+00:00,66.0,3.5,62.0,3.8,12.09,47.59359,-54.27349
2023-03-31 09:04:00+00:00,61.0,3.17,60.0,3.44,12.09,47.59359,-54.27349
2023-03-31 09:14:00+00:00,49.0,4.03,45.0,4.77,12.01,47.59359,-54.27349
2023-03-31 09:24:00+00:00,48.0,4.81,46.0,5.22,12.01,47.59359,-54.27349
2023-03-31 09:34:00+00:00,41.0,5.74,43.0,6.61,12.01,47.59359,-54.27349
2023-03-31 09:44:00+00:00,44.0,5.83,51.0,6.72,12.01,47.59359,-54.27349
2023-03-31 09:54:00+00:00,36.0,6.47,36.0,7.38,12.01,47.59359,-54.27349
2023-03-31 10:04:00+00:00,44.0,6.48,37.0,7.65,12.01,47.59359,-54.27349
2023-03-31 10:14:00+00:00,32.0,5.76,28.0,6.81,12.57,47.59359,-54.27349
2023-03-31 10:24:00+00:00,31.0,6.83,33.0,7.8,12.57,47.59359,-54.27349
2023-03-31 10:34:00+00:00,25.0,6.58,16.0,7.2,12.57,47.59359,-54.27349
2023-03-31 10:44:00+00:00,38.0,7.45,40.0,8.33,12.57,47.59359,-54.27349
2023-03-31 10:54:00+00:00,39.0,6.51,41.0,6.98,12.57,47.59359,-54.27349
2023-03-31 11:04:00+00:00,56.0,5.92,55.0,6.53,12.57,47.59359,-54.27349
2023-03-31 11:14:00+00:00,63.0,6.5,63.0,7.33,13.68,47.59359,-54.27349
2023-03-31 11:24:00+00:00,54.0,5.47,58.0,6.24,13.68,47.59359,-54.27349
2023-03-31 11:34:00+00:00,54.0,5.8,57.0,6.59,13.68,47.59359,-54.27349
2023-03-31 11:44:00+00:00,52.0,5.88,52.0,6.73,13.68,47.59359,-54.27349
2023-03-31 11:54:00+00:00,54.0,5.87,52.0,6.76,13.68,47.59359,-54.27349
2023-03-31 12:04:00+00:00,48.0,5.94,45.0,6.52,13.68,47.59359,-54.27349
2023-03-31 12:14:00+00:00,50.0,6.35,49.0,6.91,14.4,47.59359,-54.27349
2023-03-31 12:24:00+00:00,45.0,6.08,49.0,6.64,14.4,47.59359,-54.27349
2023-03-31 12:34:00+00:00,45.0,5.77,45.0,6.25,14.4,47.59359,-54.27349
2023-03-31 12:44:00+00:00,48.0,6.11,49.0,6.3,14.4,47.59359,-54.27349
2023-03-31 12:54:00+00:00,46.0,5.56,51.0,6.21,14.4,47.59359,-54.27349
2023-03-31 13:04:00+00:00,40.0,5.05,41.0,5.59,14.4,47.59359,-54.27349
2023-03-31 13:14:00+00:00,48.0,5.77,56.0,6.37,14.4,47.59359,-54.27349
2023-03-31 13:24:00+00:00,48.0,5.53,46.0,6.03,14.4,47.59359,-54.27349
2023-03-31 13:34:00+00:00,49.0,5.12,50.0,5.79,14.4,47.59359,-54.27349
2023-03-31 13:44:00+00:00,55.0,4.69,54.0,5.13,14.4,47.59359,-54.27349
2023-03-31 13:54:00+00:00,50.0,4.72,50.0,5.38,14.4,47.59359,-54.27349
2023-03-31 14:04:00+00:00,45.0,4.25,32.0,5.56,14.4,47.59359,-54.27349
2023-03-31 14:14:00+00:00,78.0,4.05,92.0,9.37,13.68,47.59359,-54.27349
2023-03-31 14:24:00+00:00,80.0,4.23,75.0,8.8,13.68,47.59359,-54.27349
2023-03-31 14:34:00+00:00,69.0,5.56,74.0,9.17,13.68,47.59359,-54.27349
2023-03-31 14:44:00+00:00,77.0,9.39,70.0,10.55,13.68,47.59359,-54.27349
2023-03-31 14:54:00+00:00,78.0,9.21,75.0,10.2,13.68,47.59359,-54.27349
2023-03-31 15:04:00+00:00,75.0,8.05,80.0,9.82,13.68,47.59359,-54.27349
2023-03-31 23:14:00+00:00,98.0,1.84,96.0,2.02,12.41,47.59359,-54.27349
2023-03-31 23:24:00+00:00,44.0,0.78,40.0,1.18,12.41,47.59359,-54.27349
2023-03-31 23:34:00+00:00,335.0,1.02,333.0,1.25,12.41,47.59359,-54.27349
2023-03-31 23:44:00+00:00,328.0,0.36,331.0,0.45,12.41,47.59359,-54.27349
2023-03-31 23:54:00+00:00,167.0,0.66,164.0,0.77,12.41,47.59359,-54.27349
